Regional Weather Roundup
Issued by NWS

Home | Current Version | Previous Version | Text Only | Print | Product List | Glossary On
Versions: 1 2 3 4 5 6 7 8 9 10 11 12 13 14 15 16 17 18 19 20 21 22 23 24 25 26 27 28 29 30 31 32 33 34 35 36 37 38 39 40 41 42 43 44 45 46 47 48 49 50
491
ASUS43 KDTX 280901
RWRMI
MICHIGAN HOURLY REGIONAL WEATHER ROUNDUP
NATIONAL WEATHER SERVICE DETROIT/PONTIAC MI
500 AM EDT THU JUL 28 2016

NOTE: "FAIR" INDICATES FEW OR NO CLOUDS BELOW 12,000 FEET WITH NO
SIGNIFICANT WEATHER AND/OR OBSTRUCTION TO VISIBILITY.

MIZ047>049-052>055-059>063-066>070-074>076-081>083-281000-
SOUTHEAST LOWER MICHIGAN

CITY           SKY/WX    TMP DP  RH WIND       PRES   REMARKS
ADRIAN         CLOUDY    64  64 100 N7        29.92S
ALMA           MOCLDY    62  62 100 W7        29.94R FOG
ANN ARBOR      CLEAR     62  62 100 CALM      29.91S
BAD AXE        FOG       60  60 100 CALM      29.95R VSB 3/4
CARO           CLEAR     60  60  98 CALM      29.94R FOG
DETROIT CITY   CLEAR     71  65  81 N3        29.92R
DETROIT        PTCLDY    71  65  81 N5        29.92R
FLINT          CLEAR     65  61  87 CALM      29.92F
GROSSE ILE     PTCLDY    72  67  83 N3        29.90R
HILLSDALE      PTCLDY    63  61  93 CALM      29.93S
HOWELL         CLEAR     65  63  94 CALM      29.93S

CITY           SKY/WX    TMP DP  RH WIND       PRES   REMARKS
JACKSON        CLEAR     63  63 100 CALM      29.93S
LAMBERTVILLE   CLOUDY    67  65  91 CALM      29.91S
LANSING        CLEAR     65  61  87 N3        29.93S
LAPEER         FAIR      60  59  97 CALM      29.94S
MASON          CLEAR     62  60  94 CALM      29.93S
MONROE         PTCLDY    65  65  97 N9        29.90R
MT. CLEMENS    CLEAR     66  64  91 N7        29.90R
PONTIAC        CLEAR     67  64  90 N3        29.92S
PORT HOPE        N/A     72  66  81 N8        29.92
PORT HURON     CLEAR     63  63 100 NW3       29.92S
TRI CITIES     FOG       65  65 100 NW3       29.94S VSB 1/4
MIDLAND        FOG       63  63 100 CALM      29.92S VSB 1/2
TROY           CLEAR     71  64  79 NE5       29.94R
SAGINAW HB     FOG       61  61 100 CALM      29.93S VSB 1
$$
MIZ043>046-050>051-056>058-064>065-071>073-077>080-281000-
SOUTHWEST LOWER MICHIGAN

CITY           SKY/WX    TMP DP  RH WIND       PRES   REMARKS
BATTLE CREEK   MOCLDY    65  64  97 CALM      29.93S
BENTON HARBOR  CLEAR     67  64  90 CALM      29.91S
BIG RAPIDS     FOG       65  65 100 CALM      29.94S VSB 1/4
COLDWATER      CLEAR     64  64  99 CALM      29.92F
FREMONT        FAIR      66  66 100 CALM      29.92F
HOLLAND        PTCLDY    66  64  93 CALM      29.93R
GRAND RAPIDS   CLEAR     67  64  90 NE3       29.93S
IONIA          FOG       62  60  95 CALM      29.92S VSB 3/4
KALAMAZOO      MOCLDY    67  62  84 CALM      29.92S
LUDINGTON      MOCLDY    68  65  92 NE5       29.92F
MARSHALL       MOCLDY    65  64  98 CALM      29.92S
MOUNT PLEASANT FOG       66  65  98 CALM      29.93S VSB 3/4
MUSKEGON       CLEAR     70  67  90 CALM      29.91F
SOUTH HAVEN    CLEAR     64  64  99 CALM      29.92S
$$
MIZ016>042-281000-
NORTHERN LOWER MICHIGAN

CITY           SKY/WX    TMP DP  RH WIND       PRES   REMARKS
ALPENA         CLOUDY    64  59  83 NW3       29.97R
BEAVER ISLAND  RAIN      60  58  91 CALM      30.01F
BELLAIRE       CLOUDY    66  57  71 N5        29.99S
CADILLAC       CLOUDY    66  63  90 N6        29.96F
CHARLEVOIX     LGT RAIN  63  54  73 N9        30.03F
FRANKFORT      CLOUDY    69  58  67 NE8       29.95F
GAYLORD        CLOUDY    64  55  72 VRB3      30.01R
GRAYLING       CLOUDY    68  55  63 N6        29.99S
HARBOR SPRINGS RAIN      61  59  94 CALM      30.00F
HOUGHTON LAKE  CLOUDY    67  65  93 NE7       29.97S
OSCODA         CLOUDY    66  65  99 NW7       29.94S
PELLSTON       LGT RAIN  62  56  80 W3        30.01R
ROGERS CITY    RAIN      65  55  69 NW7       29.99R
TRAVERSE CITY  CLOUDY    70  57  63 N10       29.96S
$$
MIZ007>008-015-281000-
EASTERN UPPER MICHIGAN

CITY           SKY/WX    TMP DP  RH WIND       PRES   REMARKS
KINROSS        LGT RAIN  58  57  97 W3        30.00R
MACKINAC ISLAN LGT RAIN  60  60 100 W7        30.00S
S. S. MARIE    CLOUDY    62  59  90 NW3       29.98S
$$
MIZ004>006-011>014-085-281000-
CENTRAL UPPER MICHIGAN

CITY           SKY/WX    TMP DP  RH WIND       PRES   REMARKS
ESCANABA       CLOUDY    61  57  88 N3        30.00S
MENOMINEE      RAIN     N/A N/A N/A NE7       29.99R
SAWYER-GWINN   CLOUDY    58  56  96 CALM      30.04S
$$
MIZ001>003-009>011-084-281000-
WESTERN UPPER MICHIGAN

CITY           SKY/WX    TMP DP  RH WIND       PRES   REMARKS
IRON MOUNTAIN  LGT RAIN  60  57  89 N3        30.02S
HOUGHTON       PTCLDY    57  54  89 NW5       30.04R
COPPER HARBOR    N/A     59  56  89 N3        30.04R
IRONWOOD       CLOUDY    61  59  94 CALM      30.03S
$$

ABBREVIATIONS USED IN REMARKS
   TC - TEMPERATURE IN CELSIUS
  WCI - WIND CHILL INDEX
   HX - HEAT INDEX
  VSB - VISIBILITY





USA.gov is the U.S. government's official web portal to all federal, state and local government web resources and services.